Theta_e
327 328 328 328 328 328 328 328 327 327 327 327 327 328 328 329 329 329 328 328 327 326 323 322 321 319 319 320 319 318 318 319 322 323 323 323 323 321 320 318 318 316 316 316 316 317 317 317 317 318 318 318 318 318 319 319 322 325 329 332 334 337 340 343 344 344 344 344 344 343 343 343 343 343
326 327 327 327 327 328 328 328 328 328 328 328 328 329 328 327 328 329 329 328 326 326 324 321 321 321 321 321 321 320 321 323 324 324 323 322 323 323 322 320 319 317 316 316 316 316 317 317 317 318 318 318 318 318 318 318 319 320 323 328 331 333 335 338 341 343 344 344 343 343 343 343 342 343
326 326 326 326 326 327 327 327 327 328 328 328 328 328 327 326 327 329 330 328 325 325 324 322 321 322 322 322 323 323 324 325 325 324 323 322 322 322 321 320 319 318 316 316 316 317 317 317 318 318 318 318 318 318 318 318 318 319 320 323 327 331 332 333 336 339 342 343 343 343 343 343 342 342
327 327 327 327 327 327 327 326 327 327 327 326 326 326 326 325 327 328 330 330 326 322 323 323 322 322 321 322 323 324 324 324 324 323 322 321 320 320 319 319 318 318 316 315 316 317 318 318 318 318 318 318 317 318 318 318 318 318 319 320 322 326 330 332 333 334 337 339 341 342 342 342 342 342
328 328 328 328 327 327 327 327 327 327 327 326 326 326 326 326 327 327 328 329 327 323 322 323 324 323 322 321 321 322 323 323 323 322 320 319 318 317 317 317 317 317 316 315 316 318 318 318 318 318 318 318 318 317 318 318 318 318 318 319 320 322 326 330 332 332 333 334 336 338 340 341 342 342
328 328 328 328 328 328 328 327 327 327 327 327 327 326 326 326 326 326 326 326 327 325 323 323 324 324 324 323 320 319 320 321 320 320 319 318 317 316 316 315 315 315 315 315 317 318 319 318 318 318 318 318 318 318 318 318 318 318 318 318 320 320 322 325 330 332 332 332 332 333 336 339 341 341
328 328 327 327 327 327 327 326 325 325 326 326 327 326 327 326 324 323 323 324 325 326 325 324 323 322 322 322 320 319 319 319 319 318 318 317 317 315 314 314 314 314 314 316 318 319 318 318 317 317 318 318 318 318 318 318 318 318 318 318 319 320 321 322 326 330 332 332 331 331 332 335 338 341
325 326 326 326 326 325 324 323 322 322 323 324 325 326 326 326 323 321 322 323 324 325 325 325 323 322 321 320 320 319 319 319 319 318 318 317 316 315 314 314 314 315 316 318 319 319 318 317 317 318 318 318 318 318 317 317 318 318 318 318 318 319 321 321 323 327 331 332 332 331 331 331 335 339
324 325 324 324 324 323 323 323 323 322 322 322 323 324 326 325 323 322 323 324 324 324 325 324 324 323 322 321 321 320 319 320 319 318 318 317 315 315 315 316 316 317 318 319 319 319 318 317 317 317 318 318 318 318 318 317 317 318 318 318 318 319 320 321 322 324 328 331 332 331 331 330 331 335
324 324 323 324 324 325 325 325 325 324 323 323 323 324 325 325 324 323 323 324 324 324 324 324 324 324 324 323 322 321 321 322 323 321 321 320 318 317 318 320 320 319 319 319 319 319 318 318 318 317 317 318 318 318 318 317 317 318 318 318 319 318 319 321 322 323 325 330 331 331 331 330 330 332
324 324 325 326 326 326 326 326 326 326 325 325 325 324 325 325 325 325 324 324 325 324 324 324 324 323 323 324 323 322 323 324 324 324 323 323 322 321 322 323 323 321 320 320 319 319 319 318 318 318 318 318 318 318 318 317 317 318 318 318 319 319 319 320 322 323 324 327 330 331 331 330 330 330
325 326 326 327 327 327 327 327 327 326 326 326 326 326 325 325 325 325 325 325 325 325 326 325 324 323 324 324 324 323 324 324 324 324 323 323 323 323 323 323 323 323 322 321 320 321 321 321 319 318 318 318 318 318 317 317 317 318 318 318 319 319 319 320 322 324 324 326 329 331 331 330 330 330
326 327 327 327 327 327 327 327 327 327 326 326 326 326 326 325 325 324 324 324 324 326 327 327 326 324 324 325 324 324 324 323 323 323 323 323 324 324 324 323 323 323 322 322 321 321 322 321 321 321 320 318 318 318 317 317 317 318 319 319 319 319 319 320 321 324 325 325 328 331 331 330 330 329
327 327 327 327 327 328 327 327 327 327 326 326 327 327 327 326 325 325 325 324 323 325 327 328 327 325 324 325 325 324 324 324 322 322 323 323 323 323 324 324 323 323 322 322 322 321 321 321 321 321 321 319 318 317 317 317 318 318 319 319 319 319 320 320 322 325 326 326 327 330 331 331 330 329
327 327 328 328 328 328 328 328 327 327 326 325 326 327 327 327 326 326 325 324 323 324 326 327 327 326 324 324 325 325 324 324 323 323 323 323 322 323 323 323 323 323 322 322 322 321 321 321 320 319 319 318 317 317 318 319 320 320 320 319 319 320 320 321 323 326 328 328 328 330 332 331 330 329
330 329 328 328 328 328 328 328 327 326 325 324 324 325 326 326 326 324 323 322 322 323 325 326 326 326 325 324 324 324 324 323 323 322 322 322 322 322 322 322 322 322 322 322 322 321 320 319 318 317 317 317 317 318 320 320 320 320 320 320 319 320 320 321 323 326 329 329 328 330 332 332 331 330
332 331 330 329 329 328 327 326 326 325 324 323 323 323 324 324 323 321 321 321 321 322 324 325 325 325 325 324 324 323 323 323 322 322 322 321 321 321 322 321 321 320 321 321 321 320 319 317 317 317 316 317 318 320 320 320 320 320 320 320 320 320 320 321 324 327 330 330 330 330 331 332 331 330
332 331 330 329 328 327 325 324 324 323 323 322 322 322 322 322 321 321 320 321 321 322 323 324 324 324 324 324 323 322 322 322 321 321 320 320 320 320 320 320 319 319 320 320 320 320 318 318 318 317 316 318 319 320 320 320 320 320 320 320 320 320 320 321 325 328 330 331 331 330 331 331 331 331
330 329 329 328 327 325 323 322 321 321 321 321 322 322 322 321 321 321 321 321 321 321 322 323 323 323 323 322 322 322 321 321 320 319 319 319 319 319 318 318 319 319 320 320 320 320 318 317 316 316 317 319 320 320 320 321 321 321 321 321 320 320 320 322 325 330 331 331 331 331 331 331 331 331
329 328 328 326 324 322 320 319 320 320 321 322 322 321 321 321 320 320 320 319 319 321 322 322 323 323 322 322 321 321 321 320 319 319 318 318 318 317 318 318 319 320 320 320 320 319 318 316 316 317 318 319 320 320 321 321 321 322 322 321 321 321 321 321 326 330 332 332 332 331 331 331 332 333
328 327 325 322 320 319 319 319 320 320 321 321 321 320 320 319 318 319 320 320 319 320 321 322 322 322 321 321 321 320 320 319 318 317 317 316 317 317 318 319 319 321 320 319 318 317 317 316 317 317 318 319 319 320 322 323 322 322 322 322 322 321 321 322 326 331 333 333 333 332 331 331 332 334
327 324 321 320 319 319 319 319 320 320 320 321 320 319 317 316 317 320 322 321 320 320 321 321 321 321 320 320 320 319 318 318 317 315 313 315 317 318 319 320 320 320 320 317 316 316 317 317 317 317 318 319 320 322 323 324 324 323 323 323 322 321 321 322 327 332 334 334 333 332 331 332 332 335
324 321 320 320 319 319 319 320 320 320 320 320 318 316 315 315 317 320 321 321 321 321 321 321 320 320 319 318 317 316 316 316 314 311 311 314 317 319 319 320 320 320 319 317 316 316 317 317 318 318 318 319 321 323 324 325 325 324 324 324 323 322 321 323 328 333 335 334 334 333 332 332 333 335
322 321 320 320 319 319 320 320 320 320 320 319 315 313 314 316 318 320 320 321 321 320 320 320 320 319 317 315 315 315 314 313 311 309 309 312 315 318 319 319 320 320 319 317 316 316 316 317 318 319 319 320 322 324 325 325 325 326 326 325 324 323 322 324 330 334 335 335 334 333 332 332 332 334
322 321 320 319 319 319 320 320 320 320 319 316 312 312 316 318 320 320 320 320 319 319 319 319 318 317 315 315 315 313 311 310 310 310 309 309 311 315 318 319 320 319 318 317 315 316 317 318 318 319 320 321 323 325 325 325 325 325 326 327 325 323 323 327 332 335 335 335 334 333 332 332 333 333
321 320 320 319 319 319 319 319 320 320 316 312 311 314 317 319 320 319 318 318 318 318 318 318 317 316 315 314 312 310 309 310 310 311 310 309 309 312 317 319 320 318 317 316 315 317 318 318 319 320 322 323 325 326 325 325 325 325 326 327 325 323 326 330 333 335 335 335 334 333 332 332 332 332
320 319 319 319 319 319 319 320 320 317 312 311 313 315 317 318 318 318 318 318 318 317 317 316 316 315 314 311 309 309 309 310 311 311 311 310 309 311 316 320 319 317 316 315 316 317 318 319 320 322 323 325 326 326 325 326 326 325 327 328 326 326 332 334 333 334 335 334 333 333 333 332 332 331
319 319 319 319 319 319 320 320 318 313 310 312 314 316 317 318 318 318 318 318 317 316 315 315 314 312 310 309 308 309 309 310 310 310 309 309 309 311 316 320 319 317 316 315 316 318 319 319 321 323 325 326 327 326 325 326 327 326 328 330 329 330 335 337 335 335 335 334 334 334 334 333 331 331
319 319 319 319 319 320 320 318 314 310 311 313 314 316 317 318 318 317 317 316 315 315 314 312 310 309 308 308 308 309 310 310 308 306 306 307 308 311 317 321 319 316 315 315 316 318 319 319 321 323 326 327 327 326 326 327 327 327 328 330 331 332 335 338 337 336 335 335 335 334 333 332 330 330
319 319 319 319 320 320 318 314 310 310 312 313 314 315 317 317 317 316 316 315 314 313 311 309 308 307 308 308 309 309 308 306 304 303 304 305 307 313 319 321 318 315 315 315 316 319 319 320 321 324 326 327 327 327 327 327 327 328 328 330 332 333 336 338 338 337 336 335 335 334 333 332 330 330
319 319 319 320 320 317 313 311 310 312 312 313 314 315 316 316 316 316 315 314 312 310 308 307 307 308 308 308 308 306 304 302 302 303 304 305 309 315 320 320 317 316 315 315 317 319 320 320 321 324 327 327 327 327 327 327 327 329 330 330 332 336 338 338 339 339 337 336 335 335 336 335 334 333
319 319 320 320 318 313 310 310 311 312 312 312 314 315 315 316 315 315 314 312 310 308 307 307 307 307 307 305 303 302 301 301 302 303 304 306 312 317 320 320 318 316 315 316 317 319 320 320 321 325 327 328 327 326 327 327 328 329 331 332 333 336 339 338 338 339 338 337 337 337 338 337 336 335
319 320 319 317 314 311 311 311 312 312 312 313 314 315 315 315 314 313 311 309 307 307 307 307 306 305 303 301 300 300 301 302 303 303 304 307 313 318 319 319 319 317 315 316 318 318 320 320 321 324 327 328 327 327 327 327 327 330 332 333 334 337 339 339 338 338 337 338 338 338 338 338 337 336
320 318 316 313 312 312 311 311 311 312 313 314 315 315 315 314 312 310 308 307 307 308 308 306 303 301 299 299 299 300 301 301 302 302 304 308 314 317 318 319 319 317 315 315 317 319 319 320 321 323 326 328 329 329 328 328 328 329 332 334 336 337 338 339 340 339 337 337 337 337 338 338 337 336
318 315 313 312 312 312 311 311 311 312 313 315 315 315 313 311 310 308 307 307 308 308 306 302 299 298 298 298 299 300 300 300 300 301 303 307 313 317 318 319 320 318 315 315 317 319 319 319 320 322 324 326 329 330 329 329 329 329 331 334 336 338 337 338 341 341 339 338 338 339 340 340 339 337
314 312 312 312 312 311 310 310 311 313 314 315 314 312 310 308 307 307 307 308 308 305 301 298 297 297 297 297 298 298 298 298 300 302 304 308 313 316 317 318 319 319 316 315 316 319 319 319 320 320 321 323 325 326 327 327 328 329 329 332 336 338 339 339 340 341 341 341 341 340 340 340 340 339
312 312 312 312 311 311 310 310 312 313 314 313 311 309 308 307 307 308 308 307 304 300 297 296 296 296 296 297 297 297 296 297 299 302 305 309 313 316 317 318 319 319 317 315 315 318 319 319 319 320 320 321 322 322 323 324 326 328 329 330 333 337 339 339 339 340 341 341 341 340 340 340 339 339
312 312 312 311 311 310 310 311 312 313 313 310 308 308 307 307 308 308 306 302 298 296 296 296 295 295 296 296 296 296 296 296 298 301 305 310 313 315 316 318 319 319 318 315 315 317 319 318 319 320 320 320 320 320 321 322 324 325 327 329 331 334 336 338 339 340 340 341 340 340 340 340 339 339
313 312 312 311 310 311 311 312 312 311 309 308 308 308 307 308 308 306 301 297 295 295 296 295 295 296 296 295 295 296 296 296 297 299 304 309 313 315 316 317 318 319 319 316 314 316 318 318 318 319 320 320 320 320 320 321 321 322 325 328 330 332 334 336 339 340 340 340 341 341 341 341 340 340
313 313 312 311 311 311 311 310 309 308 307 308 308 308 308 308 305 301 296 295 295 296 295 295 295 295 295 295 295 296 296 296 296 298 302 307 311 314 316 316 317 318 319 317 315 316 317 317 317 318 319 319 319 320 320 320 320 322 323 326 329 332 334 336 338 340 340 340 341 341 341 341 341 341
312 311 311 310 311 311 310 309 308 307 308 308 308 308 308 306 301 296 294 295 296 295 295 295 295 295 295 295 295 295 295 296 296 297 300 305 309 312 315 316 316 318 319 318 315 315 317 317 316 317 318 318 318 319 319 319 320 320 321 323 326 330 333 336 337 337 338 339 340 340 340 340 340 340
310 310 309 310 310 310 309 308 307 308 308 308 307 308 306 302 296 294 295 296 295 295 295 295 295 295 295 295 295 295 295 295 295 296 298 302 307 311 314 315 316 317 319 319 317 315 316 316 315 316 317 318 318 318 319 319 319 319 320 321 324 327 331 334 336 336 336 337 339 340 340 340 340 340
309 308 309 309 309 308 308 307 308 308 307 307 307 307 304 297 294 294 295 295 295 295 295 295 295 295 295 295 295 295 295 295 295 295 296 300 305 309 312 314 316 317 318 320 318 315 316 317 316 315 316 317 318 318 318 318 319 319 319 320 322 324 327 330 333 334 335 337 338 339 339 339 339 340
308 308 308 308 307 307 307 307 307 307 305 305 306 305 300 295 294 295 295 295 295 295 295 295 295 295 295 296 296 295 295 295 295 295 295 298 303 307 310 313 316 317 318 319 318 317 316 316 316 316 316 316 317 318 318 318 319 319 319 319 320 321 324 326 329 332 334 336 337 337 338 338 338 338
307 307 307 306 306 306 306 306 306 304 303 303 304 301 296 294 294 295 294 295 295 295 295 295 295 295 296 296 296 296 295 295 295 295 295 296 300 305 309 312 315 316 317 318 319 319 318 316 316 316 316 316 316 317 317 318 318 319 319 319 319 320 320 322 324 327 330 332 333 334 335 336 336 336
Wind_Speed
9 9 10 10 11 11 11 12 13 14 14 14 14 15 14 14 16 18 21 21 19 21 23 22 22 23 21 21 20 18 17 16 17 19 20 20 20 19 19 19 18 18 18 18 17 18 19 20 21 22 24 25 25 25 25 28 33 37 39 39 40 40 40 40 39 39 39 38 37 37 37 37 35 34
9 10 10 11 12 12 13 13 14 14 15 15 15 15 16 16 17 17 21 26 24 23 25 25 24 24 23 23 23 20 18 18 19 21 22 23 23 22 22 21 20 20 20 20 20 19 20 21 22 23 24 26 27 28 27 27 29 33 38 41 41 42 42 42 42 41 41 40 39 38 38 38 37 36
8 10 10 11 12 12 13 14 14 15 16 16 17 17 18 18 19 18 19 25 28 27 27 28 27 26 24 23 24 23 23 24 24 23 23 24 25 25 24 23 22 21 21 22 22 22 22 23 24 25 26 27 28 29 30 30 30 30 33 38 42 43 43 43 43 43 42 42 41 40 40 39 39 38
10 11 11 12 13 13 14 14 14 15 16 17 18 19 19 19 21 22 20 23 28 29 29 29 29 28 27 25 25 26 27 27 26 25 25 25 24 24 24 24 23 23 23 23 23 23 24 25 27 27 28 28 28 29 30 31 32 32 32 34 39 43 45 44 44 44 44 43 43 42 42 40 40 39
12 13 13 14 14 14 14 14 14 15 16 17 18 18 19 20 20 22 23 24 27 28 28 28 27 27 28 27 26 27 27 27 27 27 27 25 24 23 24 24 25 25 25 26 26 25 25 27 28 29 30 29 29 29 30 32 33 34 34 34 36 41 45 46 46 45 45 44 44 44 43 42 41 40
14 15 15 16 15 15 15 15 15 16 16 17 18 18 19 20 20 20 23 24 26 28 27 27 27 26 25 26 27 27 28 28 28 28 26 25 25 25 25 26 26 26 26 27 27 26 27 29 30 30 31 31 31 30 30 32 34 35 37 37 36 38 42 46 48 47 46 45 45 45 45 44 44 42
15 16 16 16 15 14 15 16 16 17 17 17 18 19 20 21 21 20 22 24 25 26 25 26 28 29 27 27 28 28 28 28 28 28 27 26 27 27 27 27 27 26 26 27 27 28 29 31 31 32 32 33 33 33 32 32 33 35 38 39 39 38 40 44 48 49 48 47 46 45 45 45 45 45
14 15 15 14 14 15 16 17 18 18 19 19 20 21 22 23 23 21 22 23 24 25 24 25 28 30 30 29 29 29 29 28 28 29 28 28 28 27 27 27 28 28 28 27 27 29 31 32 33 34 35 36 37 38 37 35 34 35 37 40 41 40 39 42 46 49 49 49 48 46 45 46 46 46
13 13 13 13 13 14 16 17 18 19 20 21 21 22 23 23 24 23 23 24 26 26 26 26 28 29 30 29 28 29 30 28 28 29 28 29 29 28 27 28 29 29 29 29 30 31 33 35 37 39 39 40 41 42 43 41 38 36 37 39 42 43 41 41 44 48 50 50 49 48 46 46 46 47
11 11 11 11 12 13 15 16 18 19 20 21 22 23 24 24 25 25 26 27 28 28 28 29 28 28 28 28 27 27 26 23 23 24 24 24 27 28 27 25 28 31 32 33 33 34 36 37 39 42 43 44 46 47 47 47 44 39 37 38 41 44 43 42 43 47 50 51 51 49 48 46 46 47
10 10 10 11 12 14 16 18 18 20 21 22 24 24 24 25 25 26 27 28 29 29 30 30 30 30 29 28 27 24 20 18 18 20 21 21 21 24 23 21 24 29 32 36 37 37 39 42 44 46 47 48 49 52 52 52 49 44 38 38 40 43 44 43 43 45 49 52 52 51 49 48 46 46
11 12 12 13 14 16 18 19 20 21 22 23 25 25 25 25 26 26 27 28 29 30 30 30 31 32 30 27 25 22 19 20 20 19 21 22 21 21 22 22 24 25 27 33 38 36 35 39 45 48 52 53 52 54 56 56 54 49 42 38 39 43 44 44 43 45 47 51 52 52 51 49 47 46
13 14 15 16 17 18 20 21 22 22 23 24 26 26 27 27 27 28 28 29 29 28 26 26 30 32 29 25 25 23 21 23 24 22 23 24 23 23 24 25 25 23 23 29 35 34 31 33 37 40 48 56 57 57 60 59 55 52 46 39 37 40 43 44 43 44 46 49 52 52 51 50 48 46
16 17 18 19 19 21 22 23 23 23 23 25 27 28 28 28 29 30 30 31 31 29 25 24 27 31 30 25 24 23 22 24 26 25 26 27 28 27 27 27 23 20 23 26 30 34 35 35 37 40 48 59 62 62 63 59 53 51 48 42 37 38 41 43 43 44 45 48 51 52 52 50 49 47
18 19 20 20 21 23 24 24 25 25 25 26 27 28 28 28 29 30 32 32 31 29 26 23 25 30 31 27 24 24 24 24 25 26 27 30 31 30 29 29 25 23 26 27 29 37 41 38 44 53 58 62 65 64 61 54 49 47 46 43 38 36 39 42 44 45 45 47 50 52 51 51 49 47
20 20 21 21 23 24 24 25 26 27 27 27 27 27 27 27 27 28 29 29 28 27 26 25 26 29 30 29 28 27 26 26 28 29 29 28 27 27 28 31 32 31 30 29 33 45 50 47 51 59 62 63 63 57 50 46 43 42 41 41 38 36 38 42 44 45 45 46 49 51 51 50 49 47
22 22 22 22 23 24 25 26 27 26 26 27 27 27 26 25 25 24 24 24 24 25 26 28 29 28 29 30 29 28 27 29 30 30 28 27 28 30 32 36 40 40 36 34 38 46 50 51 53 59 63 61 52 43 41 41 40 40 40 39 37 36 38 42 45 46 46 46 47 49 50 50 49 47
23 22 21 22 22 23 25 26 26 25 26 26 26 25 23 22 22 22 23 21 21 23 25 27 28 27 28 29 29 29 30 32 31 31 31 33 35 37 39 41 45 45 38 33 37 44 49 51 54 60 63 56 45 40 42 43 42 42 42 38 35 35 37 42 45 46 46 46 47 48 48 49 49 47
21 20 21 21 22 23 25 25 25 25 25 24 23 22 21 21 21 21 23 22 20 21 23 24 25 26 27 29 30 32 33 32 32 32 33 36 38 40 42 43 42 38 30 27 33 41 48 53 57 62 60 51 44 41 42 43 42 42 41 36 33 33 36 41 45 45 45 46 46 47 47 48 48 46
19 20 21 22 22 23 24 25 24 22 21 20 20 21 21 22 22 22 24 24 21 20 21 23 24 26 28 30 32 32 31 29 31 32 34 37 38 37 36 35 34 29 25 26 31 37 48 56 59 59 54 47 46 46 44 43 41 40 37 34 31 32 36 42 44 45 45 45 45 46 46 47 47 44
19 21 22 21 21 22 24 24 21 19 19 19 20 21 22 23 24 22 20 21 22 21 20 22 24 26 28 29 30 28 26 27 30 33 36 37 34 30 28 30 30 27 27 33 37 40 50 58 56 54 52 50 51 52 48 40 35 35 36 32 29 30 35 42 44 44 44 44 45 45 45 46 45 43
20 20 20 20 21 22 22 21 19 18 19 19 21 22 22 24 24 19 16 18 21 22 22 23 24 25 26 26 26 26 26 28 30 31 34 34 29 26 27 28 28 26 31 40 44 45 52 56 53 52 53 53 52 49 42 32 27 29 31 30 29 30 35 41 44 44 43 43 44 44 44 45 45 43
18 19 19 20 21 20 20 19 17 18 19 20 21 22 22 23 21 18 18 20 22 22 23 25 24 23 23 24 26 28 29 29 28 27 28 29 26 26 28 28 27 28 36 44 45 45 50 53 50 49 50 51 51 44 33 26 23 23 27 28 29 30 36 41 43 42 42 43 43 43 44 45 46 45
16 17 19 21 20 19 17 17 17 18 20 20 21 21 21 21 20 18 19 21 21 22 23 24 23 22 23 26 29 30 30 28 26 25 26 27 27 27 29 31 31 33 40 45 44 44 49 50 48 47 46 47 48 40 31 27 24 22 23 24 26 30 35 40 41 41 41 42 42 43 44 45 46 46
16 18 19 20 20 18 17 17 18 19 19 19 19 19 19 18 17 17 19 20 21 22 22 21 22 24 26 28 29 28 27 26 25 26 27 29 30 29 30 33 35 36 41 45 44 43 46 48 47 47 45 43 41 36 31 29 27 25 22 21 24 29 34 39 40 39 40 42 42 43 44 46 47 46
18 18 19 19 19 18 17 17 18 19 18 18 17 17 16 16 16 17 18 20 20 20 20 21 24 26 27 28 27 26 26 27 27 29 30 30 31 32 31 32 33 35 40 45 44 41 43 45 45 44 42 40 37 31 27 27 27 25 23 22 24 27 32 36 39 39 40 42 43 44 45 45 46 45
19 19 19 19 18 17 16 17 18 17 17 15 14 14 14 15 16 17 18 18 18 19 21 24 26 26 26 25 26 26 28 30 31 32 33 32 32 33 32 30 29 33 39 45 43 39 39 43 43 39 37 36 32 27 26 26 25 23 21 21 24 28 30 33 37 39 40 42 44 44 45 45 45 45
20 20 19 18 17 16 16 17 17 16 15 14 13 14 14 15 16 16 16 17 19 21 23 24 25 24 24 25 26 28 31 33 35 35 35 33 32 33 32 29 28 31 38 43 42 38 37 40 39 34 32 31 28 26 25 24 23 23 21 19 23 30 31 32 35 38 39 42 44 44 45 46 46 45
20 19 18 17 16 16 16 16 15 15 14 14 14 15 15 15 15 15 16 19 21 23 23 22 23 23 24 26 28 30 34 36 37 36 34 32 31 31 31 29 28 31 37 41 41 38 37 39 37 30 28 27 24 24 24 22 22 23 22 18 22 30 31 29 32 36 38 41 44 45 46 45 45 45
18 17 16 16 15 15 15 14 14 14 14 14 15 15 15 14 14 16 18 20 22 22 21 22 23 24 26 28 30 33 36 36 33 32 31 31 30 30 30 29 29 33 38 40 40 38 37 38 35 26 24 24 23 23 24 24 24 24 24 21 22 28 29 25 26 32 36 40 42 44 44 43 43 44
17 16 15 14 14 14 13 13 14 14 14 15 14 14 14 14 15 17 19 20 20 21 21 22 24 25 28 31 33 34 34 31 29 28 29 30 30 29 29 29 30 35 40 41 41 39 37 38 34 23 19 20 22 22 22 23 24 25 24 23 21 25 28 25 25 29 33 38 41 42 43 43 43 43
15 15 14 13 13 12 12 13 14 15 15 15 14 14 13 14 16 18 19 19 19 20 22 23 26 28 30 31 31 31 29 28 27 26 27 28 29 28 28 29 30 34 40 42 42 40 37 37 34 22 14 14 16 18 19 20 22 22 23 23 21 21 25 26 28 31 32 36 40 41 42 43 42 43
13 13 12 12 11 11 12 14 15 16 16 15 14 13 14 15 17 17 18 18 19 20 23 25 27 29 29 29 28 27 26 25 25 25 26 26 27 26 27 28 28 31 37 41 42 41 38 36 34 24 13 10 11 13 15 19 21 20 20 23 20 20 22 23 26 32 33 34 38 39 39 40 41 41
11 11 10 10 11 11 12 14 14 15 15 14 13 14 15 16 16 16 17 18 20 22 25 27 27 26 25 25 24 24 24 24 25 26 25 24 25 26 27 28 27 29 34 38 40 40 38 37 35 26 16 10 10 12 13 15 19 19 18 21 20 19 20 20 22 28 33 34 35 37 37 38 39 39
10 9 9 10 12 12 13 14 14 14 13 13 13 14 14 15 16 16 18 19 22 25 26 24 23 22 22 22 21 21 22 24 25 25 24 23 24 25 26 28 27 27 31 35 38 39 39 37 37 31 22 15 11 11 10 12 15 18 17 18 19 17 18 19 19 22 28 31 33 34 35 36 38 38
9 10 10 11 13 13 13 13 13 12 12 12 12 12 13 14 15 16 18 21 24 24 22 20 19 19 19 19 19 20 22 24 24 24 23 22 23 24 26 27 26 25 27 32 36 38 38 37 37 34 27 22 17 13 13 13 14 17 17 14 15 15 17 20 21 21 23 28 31 33 34 35 36 37
10 11 12 13 13 13 13 12 12 11 10 11 11 11 12 13 15 17 20 22 22 20 17 17 17 16 16 17 18 20 22 22 23 24 23 22 23 24 26 27 26 23 24 28 33 36 36 34 35 34 29 25 22 19 17 15 12 13 16 13 11 13 16 18 21 23 23 25 29 32 32 33 34 35
11 12 13 13 13 13 12 11 10 10 10 10 10 11 12 13 16 18 20 19 17 15 14 14 14 14 15 16 18 20 21 21 22 23 23 23 24 24 26 28 27 23 22 25 30 33 35 33 33 33 30 25 21 19 18 17 15 14 14 13 9 13 18 19 21 25 25 23 26 28 28 29 31 33
11 12 13 13 13 11 10 9 9 9 9 9 10 11 13 14 17 18 17 14 12 12 12 12 13 13 14 16 18 20 21 21 22 23 23 22 23 24 25 28 29 25 21 23 27 30 33 34 33 32 30 25 20 17 16 16 16 15 13 12 8 10 18 19 18 23 23 22 23 25 24 24 26 28
12 13 13 12 11 10 9 9 8 8 9 10 10 12 13 15 16 15 12 10 10 10 10 11 12 13 14 15 17 19 20 20 21 22 23 22 22 22 23 26 29 26 21 21 24 27 30 33 33 31 29 26 21 18 16 17 17 15 12 11 9 3 10 13 14 18 20 21 21 22 21 19 20 20
12 12 12 11 10 10 9 8 8 8 9 10 11 13 14 14 13 11 9 8 8 9 10 11 12 12 13 15 16 18 19 20 20 21 22 22 22 21 21 24 27 27 22 19 20 23 26 27 29 29 28 28 26 25 24 24 22 19 16 13 11 5 3 9 11 13 17 19 20 20 18 17 16 17
11 11 11 10 9 9 9 8 8 9 10 11 12 12 13 12 10 8 7 7 8 9 10 11 12 12 13 14 16 17 18 19 20 20 20 21 22 21 21 22 24 26 24 20 17 18 21 22 25 27 29 30 31 31 29 28 26 24 21 17 14 9 2 4 7 8 9 15 18 18 17 17 16 17
10 10 10 10 10 9 9 9 9 10 12 13 12 12 11 9 7 6 6 7 8 9 10 11 11 12 13 14 15 16 17 17 18 19 19 20 20 21 22 22 23 25 25 20 14 14 17 20 22 26 29 31 32 31 29 28 28 28 26 23 19 14 8 3 3 6 6 11 13 14 15 16 17 18
10 9 9 10 10 9 9 9 11 13 14 14 12 11 9 7 5 5 6 6 8 8 9 10 11 11 13 14 14 15 16 16 17 18 19 18 19 20 21 21 22 23 23 20 14 12 14 17 19 22 26 29 31 31 30 28 28 29 29 28 25 22 18 12 4 3 6 9 10 10 12 13 13 14
9 8 9 9 9 9 10 11 13 14 13 11 10 8 6 5 4 5 5 6 7 8 9 10 11 11 12 13 14 15 16 16 16 18 18 17 17 18 19 20 21 22 23 22 18 14 12 13 16 18 21 24 26 28 30 29 27 27 28 30 30 28 25 22 17 11 8 7 6 6 9 11 11 11
Wind_Direction
274 273 275 277 277 277 277 278 281 282 283 285 286 289 292 293 296 301 302 301 301 305 311 315 316 319 322 319 317 313 308 307 306 304 302 301 299 296 291 289 293 298 301 302 303 304 305 306 309 309 307 305 301 295 286 276 267 260 255 253 252 251 251 250 249 247 246 244 243 243 244 244 241 239
274 273 274 275 276 277 278 278 278 280 281 281 283 286 289 290 291 293 296 298 298 301 308 314 314 316 319 318 315 312 310 308 308 305 303 302 301 298 294 290 290 293 298 302 303 303 304 306 307 308 308 306 302 297 292 286 277 267 260 254 252 251 250 250 249 248 246 244 244 243 243 243 242 240
279 280 280 280 279 279 279 278 278 278 279 281 282 284 287 288 288 287 286 290 296 301 306 310 310 310 312 311 310 308 306 305 305 305 304 304 302 299 296 293 290 290 295 300 302 301 303 306 307 308 309 308 304 298 292 288 283 276 267 259 253 251 250 249 248 248 246 243 243 244 243 243 242 241
282 285 287 285 284 283 282 282 282 282 281 283 283 284 285 284 284 285 282 282 291 300 303 305 307 309 309 308 307 307 306 305 306 306 307 306 304 300 298 295 292 291 293 297 300 300 303 307 308 308 309 309 308 302 294 287 283 279 274 265 257 252 249 248 247 247 247 244 243 242 242 242 241 240
282 284 285 285 285 283 284 287 288 287 286 285 284 283 284 284 282 284 283 282 287 296 302 304 305 308 310 310 311 309 308 308 308 307 308 308 306 303 301 299 295 292 293 297 299 300 304 307 308 308 308 309 310 308 299 290 282 277 274 269 263 255 250 248 247 246 246 245 243 242 242 241 240 239
284 283 283 284 284 283 286 291 292 292 290 288 287 285 284 285 284 283 283 284 286 292 300 304 305 307 307 308 312 312 309 309 308 307 308 308 307 305 304 301 297 294 293 296 298 300 305 308 309 309 309 310 312 312 307 296 286 279 273 269 265 259 252 248 246 245 245 244 243 243 242 241 239 239
280 279 280 281 284 287 289 294 296 295 294 292 290 289 287 286 287 285 283 284 287 291 295 299 303 306 306 307 311 314 312 311 310 309 309 309 309 308 306 302 297 295 294 295 297 301 306 309 310 309 309 311 312 313 311 303 292 283 276 269 265 261 255 249 245 244 243 243 243 242 242 241 240 239
277 276 279 283 288 292 295 299 301 300 298 295 292 292 290 288 288 289 287 287 290 292 293 296 301 305 308 309 311 314 315 313 311 311 311 311 310 308 306 303 298 296 296 297 298 301 306 309 311 310 310 311 312 313 313 308 297 286 279 272 266 261 257 251 245 243 242 242 242 241 240 241 240 239
278 278 284 292 297 300 304 307 307 305 302 297 294 292 291 290 290 290 290 290 292 293 294 297 300 303 307 309 310 313 314 312 311 311 311 313 313 310 306 303 300 299 300 300 300 303 308 311 311 311 312 313 313 314 313 311 303 290 280 274 269 263 257 253 246 242 240 240 241 241 240 239 240 239
279 283 290 299 305 308 312 315 314 310 304 299 297 294 292 291 289 288 289 291 293 294 295 297 298 301 305 306 307 310 311 308 308 309 310 312 314 312 308 305 304 305 304 304 303 304 306 308 309 310 312 312 313 313 312 311 306 294 281 273 269 264 258 253 248 242 238 237 238 239 240 239 239 239
275 282 290 298 303 307 311 313 314 311 304 299 298 296 293 291 289 288 288 290 291 293 293 294 294 297 300 302 303 307 308 303 303 306 306 306 308 309 306 303 304 305 304 304 304 304 304 305 305 308 310 311 312 313 312 310 307 298 284 272 267 263 259 253 249 243 238 235 235 236 238 239 238 238
272 280 286 293 298 302 303 305 307 307 303 298 294 294 293 290 288 288 288 289 289 289 289 289 290 294 297 297 300 305 306 303 303 303 304 303 303 303 302 300 302 302 300 302 304 304 303 304 305 307 309 310 310 311 311 309 305 298 288 274 264 261 258 253 248 244 239 235 233 234 235 237 238 237
273 279 285 291 296 299 298 298 299 301 299 293 289 289 290 290 289 290 290 290 290 287 285 285 287 292 294 293 298 304 304 304 304 305 306 304 302 302 301 299 300 300 297 298 301 301 300 302 303 304 306 309 309 308 307 305 300 296 289 278 265 259 257 253 248 244 239 234 232 231 233 234 236 237
274 280 284 289 294 296 295 293 294 296 294 289 286 285 287 289 291 292 291 292 292 288 283 282 285 289 291 291 295 300 302 303 304 306 307 304 302 303 300 298 298 297 295 294 295 296 299 300 299 299 303 307 308 306 304 301 295 291 287 279 267 258 254 251 246 243 239 234 231 229 230 232 234 235
277 281 283 288 291 293 292 291 292 294 292 289 286 286 288 290 292 293 291 291 292 288 283 282 284 287 289 289 292 297 301 303 303 304 303 302 302 301 299 298 297 297 298 294 290 295 299 301 302 303 305 306 306 305 302 298 293 288 282 275 266 256 250 246 242 241 239 234 230 228 228 230 232 234
279 281 283 286 289 290 291 291 293 295 295 291 289 288 290 291 291 291 290 290 290 287 283 281 282 285 288 290 293 297 301 302 303 302 302 301 300 298 296 296 296 300 302 296 291 296 303 305 306 306 307 307 306 303 299 295 291 287 280 273 264 254 246 242 238 237 236 233 228 226 226 228 230 232
280 281 284 285 287 290 292 293 294 295 294 292 291 291 292 293 293 292 291 291 291 288 284 283 285 288 291 294 297 299 301 302 303 302 302 302 299 297 298 297 299 303 304 297 294 298 306 310 309 307 308 307 303 297 293 291 287 284 282 275 263 252 243 238 235 234 233 230 227 224 224 226 228 230
279 281 285 286 288 291 294 294 293 293 292 292 292 293 295 296 297 298 298 298 297 294 290 290 292 294 296 298 299 300 302 303 304 303 303 303 302 301 302 302 303 305 304 299 296 299 307 312 309 306 307 305 298 291 291 290 284 281 281 276 263 251 241 234 231 230 230 228 224 222 222 224 226 228
278 283 287 288 291 293 293 292 291 291 291 292 293 296 298 298 299 298 297 297 297 297 295 295 296 297 298 299 299 301 303 304 304 304 303 303 304 305 306 305 304 304 302 298 293 296 307 313 308 305 306 303 296 293 291 288 284 280 278 273 261 250 240 231 227 226 227 225 222 220 220 221 224 226
280 286 289 289 291 293 291 289 289 290 292 293 296 299 300 300 298 296 295 295 296 297 296 297 298 298 299 300 299 301 303 303 305 306 304 305 307 307 304 301 301 301 297 295 292 294 305 311 307 304 304 301 297 296 293 288 282 277 275 269 260 249 238 229 224 223 223 222 220 218 217 219 221 224
284 288 288 289 292 292 290 290 291 293 294 295 298 300 300 300 299 298 297 298 300 302 301 301 301 300 300 299 299 300 301 304 309 308 306 308 308 303 297 295 297 297 296 301 304 302 305 310 308 304 303 301 299 299 298 289 277 272 271 265 255 246 235 226 222 220 220 219 217 217 216 216 218 221
285 287 288 292 295 293 291 292 294 294 295 297 299 300 300 300 299 298 296 300 307 310 308 306 304 302 302 301 302 303 305 308 310 309 309 310 307 299 296 295 296 295 298 307 313 309 307 310 308 304 304 303 301 301 299 289 276 269 267 261 250 239 229 223 220 217 216 216 215 215 214 213 214 217
284 286 291 296 295 292 290 290 291 292 295 298 300 299 299 297 296 297 299 305 310 311 308 308 308 307 307 307 308 309 310 311 311 311 313 313 306 298 297 296 296 294 298 309 317 312 308 309 307 305 304 301 300 301 296 286 277 267 261 257 249 235 224 220 217 215 214 213 212 213 212 211 211 213
285 289 295 298 294 290 288 287 288 290 294 298 298 297 296 296 297 300 303 307 309 309 308 309 309 311 313 313 313 313 312 312 314 315 317 316 309 302 298 297 298 296 298 311 321 316 309 309 308 307 304 297 294 294 289 282 277 267 258 255 247 235 223 216 213 212 211 211 211 212 211 209 209 211
289 294 297 295 291 287 286 285 287 291 295 297 296 293 294 296 298 302 304 306 309 311 311 310 310 314 316 315 314 313 312 313 316 316 317 317 314 309 303 302 304 301 303 315 326 321 313 312 310 307 304 297 291 288 285 282 277 268 258 251 242 231 220 213 211 209 209 209 209 210 209 208 208 210
294 297 295 291 287 285 285 286 290 294 296 295 292 290 292 295 300 304 306 308 311 312 311 311 313 317 317 315 313 312 313 314 314 314 314 315 315 314 311 307 306 307 313 323 329 325 318 316 312 306 301 295 289 284 280 280 278 268 254 245 237 225 215 212 211 208 207 207 207 207 207 206 207 209
296 296 292 287 283 282 284 288 293 296 296 293 290 291 295 301 305 308 310 311 311 310 311 312 315 316 316 314 313 313 315 314 314 312 311 312 314 314 313 310 306 311 322 329 330 327 321 317 314 308 298 290 286 280 273 272 276 268 253 240 229 216 210 211 211 208 207 207 206 205 204 204 205 208
294 292 288 284 282 282 285 290 293 295 296 296 299 303 308 310 311 312 312 312 312 312 314 314 315 316 316 314 313 314 315 315 314 312 309 309 312 314 314 311 309 318 328 331 331 331 328 323 318 310 296 286 281 277 271 271 273 268 258 244 224 212 208 208 209 208 207 206 205 204 203 203 204 206
289 288 284 281 281 284 288 292 295 298 300 303 308 311 312 313 312 312 313 314 315 317 317 316 316 316 315 313 313 314 314 314 313 311 308 308 311 315 315 312 314 326 334 333 334 337 337 332 326 311 292 281 276 272 271 275 277 269 262 253 231 216 209 206 206 206 205 205 205 205 204 204 204 205
285 283 280 280 282 286 292 296 301 304 306 307 309 309 309 310 311 313 316 318 318 318 317 317 317 316 314 315 314 314 314 314 313 311 310 311 315 318 319 316 321 333 337 336 339 343 342 340 335 317 291 281 275 270 271 277 279 273 266 263 243 221 211 205 201 202 203 204 205 206 205 206 207 208
282 279 277 279 284 290 296 301 306 308 309 308 308 308 307 308 311 314 317 318 319 319 317 317 317 317 317 317 316 316 316 315 314 313 315 317 319 322 323 322 328 336 339 340 346 349 347 346 344 327 296 284 280 276 275 278 280 276 270 267 250 221 208 202 198 198 202 204 205 205 205 206 208 208
277 277 278 282 289 297 303 307 309 310 309 308 308 308 308 310 313 316 318 319 320 319 318 319 320 320 319 319 318 319 318 316 315 318 320 321 321 325 328 328 330 337 341 344 349 352 351 352 351 338 309 294 291 284 278 279 284 280 266 260 249 221 205 201 200 200 203 204 204 205 206 208 209 209
274 278 284 290 296 302 306 309 310 310 308 308 310 310 310 312 314 317 320 321 321 321 321 323 323 321 320 320 321 322 320 317 319 324 325 324 323 326 331 332 332 338 345 347 350 352 353 356 356 349 331 320 316 303 292 292 298 291 266 254 247 223 204 198 199 203 204 203 204 205 207 209 211 211
275 281 287 290 293 298 303 305 306 306 306 308 310 310 310 312 315 320 322 322 322 322 323 323 321 320 320 322 325 327 325 322 324 327 328 327 326 328 333 335 335 340 347 350 352 353 355 358 359 356 351 344 325 312 308 306 307 302 276 253 242 226 207 192 192 203 207 204 204 206 207 209 212 211
274 279 282 285 292 298 301 302 301 300 301 303 305 308 310 313 317 320 321 320 321 321 321 321 320 320 324 327 331 333 331 328 328 329 330 331 332 331 336 339 339 341 349 354 355 355 356 1 3 359 359 359 339 316 317 315 311 313 293 251 229 222 212 197 191 201 206 204 205 206 205 208 211 211
274 278 280 286 294 298 298 297 295 294 294 295 299 304 308 313 316 317 317 318 319 320 320 320 321 325 329 334 337 337 335 333 333 335 336 338 338 337 339 341 341 342 349 357 0 359 359 3 6 3 360 4 3 353 345 333 320 320 311 267 226 214 214 207 199 198 199 200 203 204 204 207 209 209
279 283 286 290 294 293 292 291 287 284 284 289 296 302 306 311 313 313 316 318 319 320 321 322 327 333 338 341 342 339 338 338 339 343 346 346 345 344 344 344 343 343 350 359 5 5 3 4 9 9 4 3 4 3 358 348 332 322 319 298 249 220 216 211 204 200 198 198 200 203 205 207 209 210
281 285 287 289 290 287 285 282 277 276 279 285 293 301 305 310 312 315 319 322 322 322 324 328 335 340 343 344 342 339 340 342 345 350 353 352 352 350 347 346 346 345 350 359 7 11 10 8 10 13 12 7 2 359 359 359 354 344 333 321 282 234 223 215 203 199 198 194 195 199 203 206 210 212
278 280 282 284 284 281 277 273 269 273 278 284 294 301 305 310 314 318 322 324 323 325 328 333 339 342 344 344 342 340 341 344 348 353 356 355 355 354 350 349 351 350 350 358 7 13 16 14 13 15 16 14 11 7 7 10 8 1 346 335 316 241 224 216 196 189 191 188 187 191 195 199 207 212
276 276 277 277 275 271 268 265 266 271 277 285 296 302 306 312 316 319 324 326 325 328 333 335 339 342 343 343 341 340 342 344 347 352 355 355 357 357 353 352 355 354 352 357 6 13 17 17 16 16 16 18 23 28 32 29 22 13 359 346 347 286 218 209 188 180 184 182 179 181 182 186 194 201
279 276 273 268 265 262 261 262 266 273 282 292 298 302 306 312 317 319 324 327 328 332 335 336 339 341 342 343 343 342 343 344 347 352 355 356 356 357 355 354 356 357 356 356 3 11 15 16 17 17 17 20 25 33 38 34 26 22 22 18 10 3 218 200 193 191 186 177 172 174 175 177 183 187
283 276 267 259 255 256 257 262 269 280 291 297 299 302 308 314 317 322 328 332 333 335 337 338 340 342 344 346 345 344 345 346 347 351 356 357 357 358 358 357 358 0 1 358 359 8 14 14 16 20 22 24 27 32 35 33 29 30 35 39 35 24 3 207 213 215 185 166 167 174 175 175 181 186
285 274 261 251 248 250 254 263 275 287 294 295 296 300 307 312 317 325 331 331 331 334 338 340 340 342 346 349 349 349 349 349 347 350 356 359 359 359 0 2 3 4 4 2 1 9 17 18 19 22 25 27 28 31 33 34 36 40 42 45 49 53 58 89 228 239 192 158 162 174 180 184 187 187
286 269 253 245 245 249 258 271 283 290 292 290 289 294 301 305 313 324 327 325 326 330 336 340 341 342 348 353 354 352 351 350 351 354 357 360 2 1 1 4 7 7 7 6 3 5 15 22 24 26 28 28 28 31 33 35 39 45 48 49 53 60 69 78 90 222 206 179 173 182 190 194 192 185
283 263 247 244 248 257 270 281 288 291 290 285 281 285 291 293 305 320 320 318 320 324 330 336 340 341 347 355 357 354 353 354 356 357 357 359 2 3 4 6 9 10 11 10 6 2 8 18 24 29 33 33 32 33 36 36 37 42 48 51 52 54 60 67 74 87 114 136 157 192 209 211 205 199